Time,TemperatureF,DewpointF,PressureIn,WindDirection,WindDirectionDegrees,WindSpeedMPH,WindSpeedGustMPH,Humidity,HourlyPrecipIn,Conditions,Clouds,dailyrainin,SolarRadiationWatts/m^2,SoftwareType,DateUTC
2013-08-19 00:02:00,68.0,55.0,-100.00,SSW,195,4.0,13.0,63,0.00,,,0.00,1.000000,,2013-08-19 05:02:00,
2013-08-19 00:11:00,68.0,55.0,-100.00,SSW,195,4.0,13.0,63,0.00,,,0.00,1.000000,,2013-08-19 05:11:00,
2013-08-19 00:42:00,67.0,54.0,-100.00,South,191,5.0,13.0,64,0.00,,,0.00,1.000000,,2013-08-19 05:42:00,
2013-08-19 00:52:00,67.0,54.0,-100.00,South,191,5.0,13.0,64,0.00,,,0.00,1.000000,,2013-08-19 05:52:00,
2013-08-19 01:02:00,67.0,54.0,-100.00,South,191,5.0,13.0,64,0.00,,,0.00,1.000000,,2013-08-19 06:02:00,
2013-08-19 01:11:00,67.0,54.0,-100.00,South,191,5.0,13.0,64,0.00,,,0.00,1.000000,,2013-08-19 06:11:00,
2013-08-19 01:42:00,66.0,55.0,-100.00,South,185,5.0,12.0,68,0.00,,,0.00,1.000000,,2013-08-19 06:42:00,
2013-08-19 01:52:00,66.0,55.0,-100.00,South,185,5.0,12.0,68,0.00,,,0.00,1.000000,,2013-08-19 06:52:00,
2013-08-19 02:01:00,66.0,55.0,-100.00,South,185,5.0,12.0,68,0.00,,,0.00,1.000000,,2013-08-19 07:01:00,
2013-08-19 02:12:00,66.0,55.0,-100.00,South,185,5.0,12.0,68,0.00,,,0.00,1.000000,,2013-08-19 07:12:00,
2013-08-19 02:42:00,66.0,55.0,-100.00,South,189,4.0,12.0,68,0.00,,,0.00,1.000000,,2013-08-19 07:42:00,
2013-08-19 02:52:00,66.0,55.0,-100.00,South,189,4.0,12.0,68,0.00,,,0.00,1.000000,,2013-08-19 07:52:00,
2013-08-19 03:02:00,66.0,55.0,-100.00,South,189,4.0,12.0,68,0.00,,,0.00,1.000000,,2013-08-19 08:02:00,
2013-08-19 03:11:00,66.0,55.0,-100.00,South,189,4.0,12.0,68,0.00,,,0.00,1.000000,,2013-08-19 08:11:00,
2013-08-19 03:42:00,65.0,56.0,-100.00,South,188,5.0,11.0,72,0.00,,,0.00,1.000000,,2013-08-19 08:42:00,
2013-08-19 03:52:00,65.0,56.0,-100.00,South,188,5.0,11.0,72,0.00,,,0.00,1.000000,,2013-08-19 08:52:00,
2013-08-19 04:01:00,65.0,56.0,-100.00,South,188,5.0,11.0,72,0.00,,,0.00,1.000000,,2013-08-19 09:01:00,
2013-08-19 04:11:00,65.0,56.0,-100.00,South,188,5.0,11.0,72,0.00,,,0.00,1.000000,,2013-08-19 09:11:00,
2013-08-19 04:43:00,65.0,56.0,-100.00,South,191,4.0,11.0,74,0.00,,,0.00,1.000000,,2013-08-19 09:43:00,
2013-08-19 04:53:00,65.0,56.0,-100.00,South,191,4.0,11.0,74,0.00,,,0.00,1.000000,,2013-08-19 09:53:00,
2013-08-19 05:03:00,65.0,56.0,-100.00,South,191,4.0,11.0,74,0.00,,,0.00,1.000000,,2013-08-19 10:03:00,
2013-08-19 05:12:00,65.0,56.0,-100.00,South,191,4.0,11.0,74,0.00,,,0.00,1.000000,,2013-08-19 10:12:00,
2013-08-19 05:43:00,65.0,58.0,-100.00,SW,228,3.0,9.0,78,0.00,,,-99.99,0.000000,,2013-08-19 10:43:00,
2013-08-19 05:52:00,65.0,58.0,-100.00,SW,228,3.0,9.0,78,0.00,,,-99.99,0.000000,,2013-08-19 10:52:00,
2013-08-19 06:02:00,65.0,58.0,-100.00,SW,228,3.0,9.0,78,0.00,,,-99.99,0.000000,,2013-08-19 11:02:00,
2013-08-19 06:12:00,65.0,58.0,-100.00,SW,228,3.0,9.0,78,0.00,,,-99.99,0.000000,,2013-08-19 11:12:00,
2013-08-19 06:45:00,62.0,61.0,-100.00,SSW,195,3.0,7.0,95,0.00,,,0.00,1.000000,,2013-08-19 11:45:00,
2013-08-19 06:52:00,62.0,61.0,-100.00,SSW,195,3.0,7.0,95,0.00,,,0.00,1.000000,,2013-08-19 11:52:00,
2013-08-19 07:01:00,62.0,61.0,-100.00,SSW,195,3.0,7.0,95,0.00,,,0.00,1.000000,,2013-08-19 12:01:00,
2013-08-19 07:11:00,62.0,61.0,-100.00,SSW,195,3.0,7.0,95,0.00,,,0.00,1.000000,,2013-08-19 12:11:00,
2013-08-19 07:13:00,63.0,61.0,-100.00,South,180,4.0,10.0,92,0.00,,,0.00,8.000000,,2013-08-19 12:13:00,
2013-08-19 07:42:00,63.0,61.0,-100.00,South,180,4.0,10.0,92,0.00,,,0.00,8.000000,,2013-08-19 12:42:00,
2013-08-19 07:52:00,63.0,61.0,-100.00,South,180,4.0,10.0,92,0.00,,,0.00,8.000000,,2013-08-19 12:52:00,
2013-08-19 08:03:00,63.0,61.0,-100.00,South,180,4.0,10.0,92,0.00,,,0.00,8.000000,,2013-08-19 13:03:00,
2013-08-19 08:42:00,64.0,62.0,-100.00,South,171,5.0,9.0,92,0.00,,,0.00,59.000000,,2013-08-19 13:42:00,
2013-08-19 08:52:00,64.0,62.0,-100.00,South,171,5.0,9.0,92,0.00,,,0.00,59.000000,,2013-08-19 13:52:00,
2013-08-19 09:02:00,64.0,62.0,-100.00,South,171,5.0,9.0,92,0.00,,,0.00,59.000000,,2013-08-19 14:02:00,
2013-08-19 09:11:00,64.0,62.0,-100.00,South,171,5.0,9.0,92,0.00,,,0.00,59.000000,,2013-08-19 14:11:00,
2013-08-19 09:42:00,69.0,64.0,-100.00,South,186,4.0,9.0,84,0.00,,,0.00,185.000000,,2013-08-19 14:42:00,
2013-08-19 09:52:00,69.0,64.0,-100.00,South,186,4.0,9.0,84,0.00,,,0.00,185.000000,,2013-08-19 14:52:00,
2013-08-19 10:01:00,69.0,64.0,-100.00,South,186,4.0,9.0,84,0.00,,,0.00,185.000000,,2013-08-19 15:01:00,
2013-08-19 10:11:00,69.0,64.0,-100.00,South,186,4.0,9.0,84,0.00,,,0.00,185.000000,,2013-08-19 15:11:00,
2013-08-19 10:13:00,72.0,65.0,-100.00,WSW,258,4.0,8.0,78,0.00,,,0.00,325.000000,,2013-08-19 15:13:00,
2013-08-19 10:44:00,72.0,65.0,-100.00,WSW,258,4.0,8.0,78,0.00,,,0.00,325.000000,,2013-08-19 15:44:00,
2013-08-19 10:54:00,72.0,65.0,-100.00,WSW,258,4.0,8.0,78,0.00,,,0.00,325.000000,,2013-08-19 15:54:00,
2013-08-19 11:05:00,72.0,65.0,-100.00,WSW,258,4.0,8.0,78,0.00,,,0.00,325.000000,,2013-08-19 16:05:00,
2013-08-19 11:47:00,74.0,66.0,-100.00,West,269,2.0,9.0,77,0.00,,,0.00,297.000000,,2013-08-19 16:47:00,
2013-08-19 12:04:00,74.0,66.0,-100.00,West,269,2.0,9.0,77,0.00,,,0.00,297.000000,,2013-08-19 17:04:00,
2013-08-19 12:12:00,74.0,66.0,-100.00,West,269,2.0,9.0,77,0.00,,,0.00,297.000000,,2013-08-19 17:12:00,
2013-08-19 12:13:00,77.0,66.0,-100.00,West,265,4.0,9.0,70,0.00,,,0.00,381.000000,,2013-08-19 17:13:00,
2013-08-19 12:49:00,77.0,66.0,-100.00,West,265,4.0,9.0,70,0.00,,,0.00,381.000000,,2013-08-19 17:49:00,
2013-08-19 12:57:00,77.0,66.0,-100.00,West,265,4.0,9.0,70,0.00,,,0.00,381.000000,,2013-08-19 17:57:00,
2013-08-19 13:05:00,77.0,66.0,-100.00,West,265,4.0,9.0,70,0.00,,,0.00,381.000000,,2013-08-19 18:05:00,
2013-08-19 13:13:00,81.0,67.0,-100.00,West,274,5.0,12.0,63,0.00,,,-99.99,582.000000,,2013-08-19 18:13:00,
2013-08-19 13:50:00,-999.0,-99.9,-100.00,West,274,5.0,12.0,63,0.00,,,-99.99,582.000000,,2013-08-19 18:50:00,
2013-08-19 14:00:00,-999.0,-99.9,-100.00,West,274,5.0,12.0,63,0.00,,,-99.99,582.000000,,2013-08-19 19:00:00,
2013-08-19 14:07:00,81.0,67.0,-100.00,West,274,5.0,12.0,63,0.00,,,-99.99,582.000000,,2013-08-19 19:07:00,
2013-08-19 14:13:00,84.0,67.0,-100.00,West,278,4.0,13.0,56,0.00,,,0.00,838.000000,,2013-08-19 19:13:00,
2013-08-19 14:50:00,84.0,67.0,-100.00,West,278,4.0,13.0,56,0.00,,,0.00,838.000000,,2013-08-19 19:50:00,
2013-08-19 14:59:00,84.0,67.0,-100.00,West,278,4.0,13.0,56,0.00,,,0.00,838.000000,,2013-08-19 19:59:00,
2013-08-19 15:08:00,84.0,67.0,-100.00,West,278,4.0,13.0,56,0.00,,,0.00,838.000000,,2013-08-19 20:08:00,
2013-08-19 15:13:00,84.0,64.0,-100.00,WNW,286,6.0,14.0,51,0.00,,,0.00,747.000000,,2013-08-19 20:13:00,
2013-08-19 15:50:00,84.0,64.0,-100.00,WNW,286,6.0,14.0,51,0.00,,,0.00,747.000000,,2013-08-19 20:50:00,
2013-08-19 16:00:00,-999.0,-99.9,-100.00,WNW,286,6.0,14.0,-999,-99.99,,,-99.99,747.000000,,2013-08-19 21:00:00,
2013-08-19 16:08:00,84.0,64.0,-100.00,WNW,286,6.0,14.0,51,0.00,,,0.00,747.000000,,2013-08-19 21:08:00,
2013-08-19 16:46:00,87.0,60.0,-100.00,WNW,286,4.0,12.0,40,0.00,,,0.00,652.000000,,2013-08-19 21:46:00,
2013-08-19 16:55:00,87.0,60.0,-100.00,WNW,286,4.0,12.0,40,0.00,,,0.00,652.000000,,2013-08-19 21:55:00,
2013-08-19 17:06:00,87.0,60.0,-100.00,WNW,286,4.0,12.0,40,0.00,,,0.00,652.000000,,2013-08-19 22:06:00,
2013-08-19 17:13:00,86.0,60.0,-100.00,WNW,283,5.0,11.0,42,0.00,,,0.00,504.000000,,2013-08-19 22:13:00,
2013-08-19 17:44:00,86.0,60.0,-100.00,WNW,283,5.0,11.0,42,0.00,,,0.00,504.000000,,2013-08-19 22:44:00,
2013-08-19 17:55:00,86.0,60.0,-100.00,WNW,283,5.0,11.0,42,0.00,,,0.00,504.000000,,2013-08-19 22:55:00,
2013-08-19 18:05:00,86.0,60.0,-100.00,WNW,283,5.0,11.0,42,0.00,,,0.00,504.000000,,2013-08-19 23:05:00,
2013-08-19 18:48:00,85.0,62.0,-100.00,WSW,243,3.0,11.0,47,0.00,,,0.00,319.000000,,2013-08-19 23:48:00,
2013-08-19 18:55:00,85.0,62.0,-100.00,WSW,243,3.0,11.0,47,0.00,,,0.00,319.000000,,2013-08-19 23:55:00,
2013-08-19 19:02:00,85.0,62.0,-100.00,WSW,243,3.0,11.0,47,0.00,,,0.00,319.000000,,2013-08-20 00:02:00,
2013-08-19 19:11:00,85.0,62.0,-100.00,WSW,243,3.0,11.0,47,0.00,,,0.00,319.000000,,2013-08-20 00:11:00,
2013-08-19 19:42:00,81.0,64.0,-100.00,SW,224,2.0,8.0,56,0.00,,,0.00,135.000000,,2013-08-20 00:42:00,
2013-08-19 19:52:00,81.0,64.0,-100.00,SW,224,2.0,8.0,56,0.00,,,0.00,135.000000,,2013-08-20 00:52:00,
2013-08-19 20:03:00,81.0,64.0,-100.00,SW,224,2.0,8.0,56,0.00,,,0.00,135.000000,,2013-08-20 01:03:00,
2013-08-19 20:11:00,81.0,64.0,-100.00,SW,224,2.0,8.0,56,0.00,,,0.00,135.000000,,2013-08-20 01:11:00,
2013-08-19 20:42:00,76.0,65.0,-100.00,SSW,200,1.0,4.0,68,0.00,,,0.00,18.000000,,2013-08-20 01:42:00,
2013-08-19 20:52:00,76.0,65.0,-100.00,SSW,200,1.0,4.0,68,0.00,,,0.00,18.000000,,2013-08-20 01:52:00,
2013-08-19 21:02:00,76.0,65.0,-100.00,SSW,200,1.0,4.0,68,0.00,,,0.00,18.000000,,2013-08-20 02:02:00,
2013-08-19 21:11:00,76.0,65.0,-100.00,SSW,200,1.0,4.0,68,0.00,,,0.00,18.000000,,2013-08-20 02:11:00,
2013-08-19 21:42:00,71.0,68.0,-100.00,South,188,1.0,5.0,91,0.06,,,0.06,1.000000,,2013-08-20 02:42:00,
2013-08-19 21:52:00,71.0,68.0,-100.00,South,188,1.0,5.0,91,0.06,,,0.06,1.000000,,2013-08-20 02:52:00,
2013-08-19 22:02:00,71.0,68.0,-100.00,South,188,1.0,5.0,91,0.06,,,0.06,1.000000,,2013-08-20 03:02:00,
2013-08-19 22:11:00,71.0,68.0,-100.00,South,188,1.0,5.0,91,0.06,,,0.06,1.000000,,2013-08-20 03:11:00,
2013-08-19 22:13:00,71.0,68.0,-100.00,South,187,4.0,9.0,91,0.01,,,0.07,1.000000,,2013-08-20 03:13:00,
2013-08-19 22:43:00,71.0,68.0,-100.00,South,187,4.0,9.0,91,0.01,,,0.07,1.000000,,2013-08-20 03:43:00,
2013-08-19 22:54:00,71.0,68.0,-100.00,South,187,4.0,9.0,91,0.01,,,0.07,1.000000,,2013-08-20 03:54:00,
2013-08-19 23:03:00,71.0,68.0,-100.00,South,187,4.0,9.0,91,0.01,,,0.07,1.000000,,2013-08-20 04:03:00,
2013-08-19 23:43:00,70.0,67.0,-100.00,South,188,4.0,9.0,90,0.00,,,0.07,1.000000,,2013-08-20 04:43:00,
2013-08-19 23:53:00,70.0,67.0,-100.00,South,188,4.0,9.0,90,0.00,,,0.07,1.000000,,2013-08-20 04:53:00,